Regional Weather Roundup
Issued by NWS Pendleton, OR

Home | Current Version | Previous Version | Text Only | Print | Product List | Glossary On
Versions: 1 2 3 4 5 6 7 8 9 10 11 12 13 14 15 16 17 18 19 20 21 22 23 24 25 26 27 28 29 30 31 32 33 34 35 36 37 38 39 40 41 42 43 44 45 46 47 48 49 50
991
ASUS46 KPDT 262225
RWRPDT
PENDLETON REGIONAL WEATHER ROUNDUP
NATIONAL WEATHER SERVICE PENDLETON OREGON
300 PM PDT THU MAY 26 2016

NOTE: FAIR INDICATES FEW OR NO CLOUDS BELOW 12,000 FEET WITH NO
SIGNIFICANT WEATHER AND/OR OBSTRUCTIONS TO VISIBILITY.

# INDICATES UNOFFICIAL STATION AND DATA

WAZ520-262310-
EAST SLOPES OF WASHINGTON CASCADES

CITY            SKY/WX      TMP DP  RH  WIND    PRES   REMARKS
#CLE ELUM HS    N/A         55  39  55  N10     30.02F
#CLE ELUM 2NW   N/A         53  38  57  W2      N/A
#GLENWOOD       N/A         61  44  53  S6      30.04F
#MANASTASH CYN  N/A         62  38  41  NW2     29.98F
#NELSON 3SW     N/A         53  39  59  CALM    30.24S
#NILE           N/A         61  38  42  W6      29.28F
#TEANAWAY 4NE   N/A         58  44  60  SW8     N/A
#TROUT LAKE 1NE N/A         56  41  57  W17G28  30.08F
#TROUT LAKE 1E  N/A         57  41  55  CALM    30.06F
$$

WAZ521-262310-
SIMCOE HIGHLANDS

CITY            SKY/WX      TMP DP  RH  WIND    PRES   REMARKS
#CENTERVILLE 1SWN/A         58  41  53  W22     30.03F
#GOLDENDALE 1NE N/A         61  29  30  SW7     N/A
#GOLDENDALE 4W  N/A         61  45  56  W25     30.09F
#GOODNOE HILLS  N/A         64  41  43  SW31    29.94F
#LYLE 6NE       N/A         57  43  59  SW18G28 30.06F
$$

WAZ026-262310-
KITTITAS VALLEY

CITY            SKY/WX      TMP DP  RH  WIND    PRES   REMARKS
ELLENSBURG AP   PTCLDY      64  40  41  NW31G40 30.00F
#ELLENSBURG CWU N/A         62  40  44  N22     29.92F
#ELLENSBURG 3NE N/A         58  42  55  W15G30  29.99F
#ELLENSBURG     N/A         63  41  44  NW14    N/A
#ELLENSBURG 13S N/A         68  37  32  NE14    N/A
#KITTITAS 3S    N/A         62  43  50  NW17G25 29.95F
#THORP 6N       N/A         54  40  59  W24G36  30.01F
$$

WAZ027-262310-
YAKIMA VALLEY

CITY            SKY/WX      TMP DP  RH  WIND    PRES   REMARKS
SUNNYSIDE AP    SUNNY       71  41  34  CALM    29.97F
YAKIMA AIRPORT  PTCLDY      75  36  24  N16     29.98F
YAKIMA-VAGABOND SUNNY       72  33  24  W16     29.96F
#DONALD 2NE     N/A         79   4   5  CALM    28.81F
#GRANDVIEW      N/A         72  35  26  W1      29.95F
#MABTON         N/A         73  41  31  E2      29.96F
#NACHES 2SW     N/A         66  42  42  W10     30.01F
#TERRACE HTS    N/A         77  36  23  N5      29.91F
#TOPPENISH      N/A         72  41  33  CALM    29.86F
#WEST VALLEY    N/A         70  38  31  N7      29.93F
#W YAKIMA       N/A         70  39  32  N6      29.95F
#WHITE SWAN 5E  N/A         74  43  33  W5      29.95F
#WILEY CITY 3W  N/A         72  32  23  N2      29.95F
$$

WAZ028-262310-
LOWER COLUMBIA BASIN...WASHINGTON

CITY            SKY/WX      TMP DP  RH  WIND    PRES   REMARKS
PASCO           PTCLDY      75  39  27  S14G24  29.98F
PROSSER AWOS    N/A         73  34  24  N9      29.98F
RICHLAND AWOS   PTCLDY      77  41  28  S17G28  29.95F
#BENTON CITY    N/A         71  41  34  SE9G29  29.85F
#CONNELL 5N     N/A         72  45  38  SW6     29.94F
#CONNELL 5NW    N/A         70  48  46  SW7     29.90F
#ELTOPIA 6NW    N/A         69  47  45  S7      28.94F
#KAHLOTUS       N/A         67  43  42  W10     29.94F
#KENNEWICK 3S   N/A         70  44  39  N9      29.96F
#PATERSON       N/A         68  43  40  W20G28  29.96F
#SAGEMOOR 2W    N/A         69  47  45  S10     29.80F
#TOUCHET 2S     N/A         69  46  44  SW9     29.96F
#WEST PASCO     N/A         75  48  38  SW6     30.01F
$$

WAZ029-262310-
FOOTHILLS OF THE BLUES...WASHINGTON

CITY            SKY/WX      TMP DP  RH  WIND    PRES   REMARKS
WALLA WALLA AP  CLOUDY      65  40  40  W12     30.02F
#CLYDE 6NW      N/A         67  43  42  W9      29.95F
#DAYTON SCHOOL  N/A         65  37  35  SW7     30.01F
#LOWDEN 2SE     N/A         70  44  39  W12     29.96F
#PLEASANT VIEW 1N/A         66  40  38  SW8     29.99F
#PRESCOTT       N/A         68  45  44  W3      29.97F
#SUDBURY        N/A         62  N/A N/A CALM    N/A
#WHITMAN COLLEGEN/A         66  41  40  S8      30.03F
#WAITSBURG 8N   N/A         66  17  15  S13G24  29.82S
#WALLA WALLA U  N/A         68  43  40  SW1     29.99F
#WHITMAN MISSIONN/A         70  45  41  W3      29.99F
$$

WAZ030-262310-
BLUE MOUNTAINS...WASHINGTON

CITY            SKY/WX      TMP DP  RH  WIND    PRES   REMARKS
#DIXIE 5SE      N/A         57  45  64  SW13    29.97F
$$

ORZ009-041-WAZ024-262310-
COLUMBIA RIVER GORGE

CITY            SKY/WX      TMP DP  RH  WIND    PRES   REMARKS
HOOD RIVER AP   MOCLDY      61  43  51  W6G24   30.15F
THE DALLES AP   PTCLDY      65  38  37  NW28G41 30.10F
#ARLINGTON AIRPON/A         66  41  40  W20G26  30.01F
#CELILO DOT     N/A         65  40  40  SW12    N/A
#LYLE           N/A         60  44  55  W12G33  30.12F
#MARYHILL 2W    N/A         59  42  53  W16     N/A
#MOSIER 1S      N/A         59  31  34  NW12    30.12S
#MURDOCK        N/A         62  44  52  NW21G36 30.06F
#RUFUS DOT      N/A         64  41  43  W23     N/A
#SMITHVILLE     N/A         64  41  43  W24G35  30.05F

$$

ORZ510-262310-
NORTH CENTRAL OREGON

CITY            SKY/WX      TMP DP  RH  WIND    PRES   REMARKS
#ANTELOPE       N/A         60  39  46  W3      29.91F
#CHENOWITH 1W   N/A         55  38  53  W41     N/A
#COW CYN RST AREN/A         58  N/A N/A NW6     N/A
#DUFUR 9E       N/A         54  38  55  NW28G40 30.13F
#GRASS VALLEY   N/A         56  38  51  N3      N/A
#GRASS VALLEY 1SN/A         58  40  51  NW13    30.03S
#KENT DOT       N/A         60  31  33  N14     N/A
#MAUPIN SCHOOL  N/A         64  40  41  W13     30.09F
#MORO SCHOOL    N/A         58  44  60  W15G25  30.08F
#SHANIKO 5WSW   N/A         56  29  35  W14     N/A
#SHANIKO 4NW    N/A         55  -53  1  W13G24  30.09S
#TYGH VALLEY 2NEN/A         65  43  45  SW12    30.04F
#WAPANITIA AIRPON/A         59  39  47  W14G29  30.07F
#WASCO DOT      N/A         60  38  44  W20     N/A
#WASCO AIRPORT  N/A         60  35  39  W33     N/A
#WASCO 5NE      N/A         60  41  49  W16G30  30.04F
$$

ORZ511-262310-
CENTRAL OREGON

CITY            SKY/WX      TMP DP  RH  WIND    PRES   REMARKS
BEND AIRPORT    SUNNY       63  34  34  NW13    30.06F
MADRAS AIRPORT  PTCLDY      68  39  35  N14     30.10F
REDMOND AIRPORT PTCLDY      67  31  26  N13     30.06F
#ASHWOOD SCHOOL N/A         62  37  39  W9      30.03F
#BEND 1SW       N/A         63  39  41  N2      N/A
#BEND-AWBREY    N/A         66  39  37  NW2     30.01F
#BEND-KIM LN    N/A         67  41  39  N2      30.05F
#CULVER         N/A         63  41  44  N3      29.99F
#CULVER 8W      N/A         62  33  34  CALM    30.06F
#LAKE BILLY CHINN/A         66  N/A N/A NE8     30.12S
#MADRAS 4S      N/A         62  14  15  N16     30.13F
#POWELL BUTTE 3EN/A         62  38  41  N8      N/A
#POWELL BUTTE   N/A         68  44  42  N5      29.93F
#PRINEVILLE 3N  N/A         65  42  43  W5      30.00F
#WARM SPRINGS   N/A         67  41  39  CALM    30.03F

$$


ORZ509-262310-
EAST SLOPES OF OREGON CASCADES

CITY            SKY/WX      TMP DP  RH  WIND    PRES   REMARKS
SISTERS AWOS    N/A         61  37  41  W25G37  30.05F
#BLUE BOX PASS  N/A         42  N/A N/A NW12    N/A    WCI 35
#CAMP SHERMAN   N/A         64  36  35  N5      30.16R
#LA PINE DOT    N/A         65  22  19  W8      N/A
#LA PINE 4NW    N/A         60  36  41  N3      30.08F
#LAVA BUTTE DOT N/A         68  33  27  CALM    N/A
#SISTERS AIRPOR N/A         59  44  57  N13G31  30.17S
#SISTERS ODOT   N/A         60  N/A N/A SW8     N/A
#SISTERS 1NW    N/A         60  35  39  N26     N/A
#SISTERS 3N     N/A         60  38  44  W3      30.06F
#SUNRIVER       N/A         65  38  37  S3      30.03F
#SUTTLE LK DOT  N/A         52  38  59  CALM    N/A
#TUMALO 3W      N/A         60  35  39  N13     29.92F
#WANOGA BUTTE D N/A         56  32  40  NW2     N/A

$$

ORZ044-262310-
LOWER COLUMBIA BASIN...OREGON

CITY            SKY/WX      TMP DP  RH  WIND    PRES   REMARKS
HERMISTON       N/A         N/A N/A N/A MISG    N/A
#BOARDMAN SCHOOLN/A         69  39  33  S21G28  29.98F
#ECHO 8SW       N/A         68  38  33  W23     30.01F
#I-84 EX 198 DOTN/A         65  37  35  E25     N/A
#UMATILLA SCHOOLN/A         69  48  47  W16     30.02F
#UMATILLA       N/A         70  39  32  SW14    29.92F
$$

ORZ507-262310-
NORTHERN FOOTHILLS OF THE BLUES

CITY            SKY/WX      TMP DP  RH  WIND    PRES   REMARKS
PENDLETON AIRPT MOCLDY      69  33  26  W22G30  30.02F
#ADAMS 3WNW     N/A         67  40  37  SW14G24 29.98F
#CAYUSE         N/A         65  40  40  W13     29.98F
#HELIX SCHOOL   N/A         65  37  35  NW9     29.98F
#HELIX 3N       N/A         64  40  41  W16     29.99F
#HELIX 6SW      N/A         63  38  39  CALM    30.02F
#HOLDMAN 5SE    N/A         67  41  39  W12     30.01F
#HOLDMAN 6E     N/A         64  38  38  E10     29.80F
#M-F GROVE ELEM N/A         67  35  30  SW6     29.99F
#M-FREEWATER 5SEN/A         64  43  46  S6      30.01F
#PENDLETON DNTN N/A         72  40  31  W5      30.04S
#PDT AQUATIC CTRN/A         70  40  34  W9      30.05S
#PDT SUNRIDGE   N/A         68  38  33  NW13G25 30.03F
#PENDLETON 7NW  N/A         66  42  42  W15G24  32.27S
#PILOT ROCK 1S  N/A         69  39  33  W2      30.02F
#PILOT ROCK     N/A         71  41  34  N5      30.03F
#TUTUILLA       N/A         68  41  37  CALM    30.01F
#UMAPINE 2E     N/A         71  45  39  SW6     29.97F
#WESTON SCHOOL  N/A         62  36  38  N7      29.92F

$$

ORZ508-262310-
SOUTHERN FOOTHILLS OF THE BLUES

CITY            SKY/WX      TMP DP  RH  WIND    PRES   REMARKS
LEXINGTON       PTCLDY      64  39  40  W20G28  30.07F
#AJAX           N/A         58  33  39  S13     27.82F
#CONDON SCHOOL  N/A         59  41  51  W13     30.01F
#CONDON 5W      N/A         57  38  49  W14     30.04F
#FOSSIL SCHOOL  N/A         62  38  41  NW9     30.00F
#HEPPNER EOC    N/A         62  41  46  W13     29.95S
#HEPPNER 4NE    N/A         58  40  51  NW15    30.01F
#LEXINGTON 2SE  N/A         65  41  41  NW16G26 30.00F
#OLEX 4N        N/A         62  38  41  W25G37  30.03F
#RUGGS 5NE      N/A         61  39  44  W15     30.17F
#RUGGS 2SW      N/A         62  41  46  NW14G24 30.03F

$$

ORZ502-503-262310-
BLUE MOUNTAINS

CITY            SKY/WX      TMP DP  RH  WIND    PRES   REMARKS
MEACHAM         CLOUDY      56  34  43  VRB3    30.06F
#BATTLE MTN DOT N/A         60  40  47  CALM    N/A
#CUTSFORTH PARK N/A         58  36  44  CALM    29.84F
#GREENHORN 9SW  N/A         64  44  48  NW3     26.23F
#HARDMAN 10S    N/A         61  34  36  N5      30.22S
#HEPPNER 15SE   N/A         57  36  45  W7      29.97F
#LADD CYN SMT   N/A         65  34  31  N10     N/A
#LADD CREEK ODOTN/A         64  39  40  NE12    N/A
#LONG CREEK HS  N/A         62  39  43  CALM    N/A
#N POWDER DOT   N/A         64  44  48  NE10    N/A
#PIKES PEAK     N/A         51  38  61  SW16G25 27.99S
#TOLLGATE       N/A         47  38  71  W5      29.93S
#TROY SCHOOL    N/A         74  46  37  S7      29.76F
#UKIAH          N/A         60  41  49  N5      29.91F
#WESTON 4E      N/A         57  43  59  SW3     29.97F
$$

ORZ505-262310-
JOHN DAY BASIN

CITY            SKY/WX      TMP DP  RH  WIND    PRES   REMARKS
JOHN DAY        N/A         N/A N/A N/A MISG    N/A
#DAYVILLE SCHOOLN/A         69  33  26  NW6     29.98F
#MITCHELL       N/A         66  42  42  CALM    30.20F
#MITCHELL 8NW   N/A         63  33  32  N7      30.20F
#MONUMENT HS    N/A         68  28  22  SW7     29.98S
#MT. VERNON 5SE N/A         64  37  37  SW2     29.99F
#SPRAY SCHOOL   N/A         73  N/A N/A N5      N/A
#WINLOCK        N/A         66  38  36  CALM    30.01F
$$

ORZ506-262310-
OCHOCO AND JOHN DAY HIGHLANDS

CITY            SKY/WX      TMP DP  RH  WIND    PRES   REMARKS
#BUCK CREEK DOT N/A         63  31  30  SW12    N/A
#HORSE RIDGE DO N/A         61  33  35  W9      N/A
#KEYES SMT DOT  N/A         58  34  40  W7      N/A
#PAULINA SCHOOL N/A         66  28  24  SW10    N/A
#PINE MTN OBS   N/A         51  34  52  NW5     N/A
#PRAIRIE CITY   N/A         66  43  43  W3      30.16F
#SENECA         N/A         62  N/A N/A N6      N/A
#SENECA 9NW     N/A         62  35  36  E1      29.96F
$$

ORZ049-262310-
GRANDE RONDE VALLEY

CITY            SKY/WX      TMP DP  RH  WIND    PRES   REMARKS
LA GRANDE       MOCLDY      66  36  33  NW12    30.00F
#COVE           N/A         65  48  54  CALM    30.03F
#COVE SCHOOL    N/A         66  44  45  CALM    30.03F
#COVE 6NW       N/A         65  44  46  NW6     29.89F
#ELGIN 3N       N/A         62  38  41  CALM    29.99S
#ELGIN 1E       N/A         63  39  41  CALM    N/A
#IMBLER SCHOOL  N/A         62  42  48  W5      29.97F
#ISLAND CITY 4N N/A         59  48  67  CALM    30.22F
#LADD CYN DOT   N/A         67  42  40  N10     N/A
#UNION 1S       N/A         67  44  43  NW6     29.85F
$$

ORZ050-262310-
WALLOWA COUNTY

CITY            SKY/WX      TMP DP  RH  WIND    PRES   REMARKS
#ENTERPRISE AP  N/A         49  29  46  CALM    29.95F
#ENTERPRISE HS  N/A         62  46  56  NW2     30.01F
#IMNAHA SCHOOL  N/A         67  46  47  S8      29.94R
#IMNAHA 10S     N/A         60  52  75  SW1     29.97S
#JOSEPH 3N      N/A         60  43  53  W7      30.04F
#JOSEPH 3W      N/A         60  49  67  N2      29.86F
#LOSTINE 3SE    N/A         62  43  50  NW2     30.00F
#MT HOWARD 8000 N/A         44  40  86  CALM    30.12F
#PROMISE 1S     N/A         58  41  53  E8      30.05S
#WALLOWA SCHOOL N/A         63  41  44  NW3     29.97F



$$



USA.gov is the U.S. government's official web portal to all federal, state and local government web resources and services.